Location: Newark
(43.6583°N, 1.6617°E)
Time: 21:17:28
(UTC+00:00)

Vanguard 1 Rocket - Pass Details

Date: 21 August 2019
Orbit: 650 x 4226 km, 34.3° (Epoch: 23 October)

Event Time Altitude Azimuth Distance (km) Brightness Sun altitude
Rises 08:47:30 0° 264° (W) 4,456 10.5 38.7°
Reaches altitude 10° 08:51:11 10° 246° (WSW) 3,952 10.4 39.3°
Maximum altitude 08:58:14 19° 206° (SSW) 4,097 10.9 40.5°
Drops below altitude 10° 09:08:24 10° 168° (SSE) 5,939 12.1 42.1°
Sets 09:16:15 0° 155° (SSE) 7,629 12.7 43.3°
